Date String (YYYY-MM-DD hh:mm:ss) UTC,Instrument flags,Ambient pressure (hPa),Sample flow (lpm),Bypass flow (lpm),Sample temperature (°C),Ambient temperature (°C),ASC tube jacket temperature (°C),LED temperature (°C),Box temperature (°C),Sample RH (%),Span deviation,Mass concentration (μg/m³),Mass concentration (μg/m³),Mass concentration (μg/m³)
DateTimeUTC,F1_M11,P_M11,Q1_M11,Q2_M11,T1_M11,T2_M11,T3_M11,T4_M11,T5_M11,U1_M11,ZSPAN_M11,X2_M11,X0_M11,X1_M11
2023-04-04 14:00:00,,0814.3,5.00,0.00,22.5,20.9,00.0,31.1,24.0,13.5,0000.0,0001.20,0002.23,0000.94
2023-04-04 14:01:00,,0814.3,5.00,0.00,22.5,20.7,00.0,31.0,23.9,13.6,0000.0,0001.21,0002.25,0000.94
2023-04-04 14:02:00,,0814.4,5.00,0.00,22.5,20.6,00.0,31.0,23.9,13.6,0000.0,0001.25,0002.35,0000.95
2023-04-04 14:03:00,,0814.4,5.01,0.00,22.4,20.5,00.0,31.0,23.8,13.6,0000.0,0001.28,0002.40,0000.96
2023-04-04 14:04:00,,0814.4,5.00,0.00,22.4,21.0,00.0,30.9,24.1,13.6,0000.0,0001.29,0002.31,0000.97
2023-04-04 14:05:00,,0814.4,5.01,0.00,22.6,22.1,00.0,30.9,24.5,13.6,0000.0,0001.35,0002.48,0001.00
2023-04-04 14:06:00,,0814.4,4.99,0.00,22.7,23.1,00.0,30.9,24.8,13.4,0000.0,0001.41,0002.70,0001.02
2023-04-04 14:07:00,,0814.4,4.99,0.00,22.8,23.0,00.0,31.0,24.6,13.4,0000.0,0001.42,0002.76,0001.03
2023-04-04 14:08:00,,0814.4,5.00,0.00,22.8,22.6,00.0,31.0,24.4,13.4,0000.0,0001.39,0002.60,0001.04
2023-04-04 14:09:00,,0814.3,5.01,0.00,22.7,22.2,00.0,31.0,24.3,13.4,0000.0,0001.39,0002.52,0001.04
2023-04-04 14:10:00,,0814.4,5.01,0.00,22.7,21.8,00.0,31.0,24.2,13.5,0000.0,0001.44,0002.58,0001.07
2023-04-04 14:11:00,,0814.4,5.01,0.00,22.6,21.5,00.0,31.1,24.1,13.5,0000.0,0001.51,0003.76,0001.10
2023-04-04 14:12:00,,0814.4,4.98,0.00,22.6,21.2,00.0,31.0,24.0,13.5,0000.0,0001.56,0004.45,0001.15
2023-04-04 14:13:00,,0814.4,5.01,0.00,22.5,21.0,00.0,31.0,24.0,13.6,0000.0,0001.64,0004.71,0001.18
2023-04-04 14:14:00,,0814.3,5.00,0.00,22.5,20.8,00.0,31.0,23.9,13.6,0000.0,0001.74,0005.63,0001.22
2023-04-04 14:15:00,,0814.3,5.00,0.00,22.5,20.7,00.0,31.0,23.8,13.7,0000.0,0001.85,0005.94,0001.26
2023-04-04 14:16:00,,0814.3,5.00,0.00,22.4,20.6,00.0,31.0,23.8,13.7,0000.0,0001.92,0006.24,0001.30
2023-04-04 14:17:00,,0814.3,5.00,0.00,22.4,20.6,00.0,31.0,23.8,13.7,0000.0,0001.93,0006.48,0001.32
2023-04-04 14:18:00,,0814.4,5.00,0.00,22.4,21.3,00.0,30.9,24.1,13.7,0000.0,0001.97,0006.73,0001.33
2023-04-04 14:19:00,,0814.4,5.00,0.00,22.6,22.4,00.0,30.9,24.5,13.6,0000.0,0002.04,0006.94,0001.35
2023-04-04 14:20:00,,0814.5,5.01,0.00,22.7,23.2,00.0,30.9,24.8,13.5,0000.0,0002.07,0007.00,0001.36
2023-04-04 14:21:00,,0814.4,4.98,0.00,22.8,23.1,00.0,31.0,24.6,13.5,0000.0,0002.08,0007.10,0001.36
2023-04-04 14:22:00,,0814.4,4.99,0.00,22.7,22.7,00.0,31.0,24.5,13.5,0000.0,0002.06,0005.92,0001.36
2023-04-04 14:23:00,,0814.4,5.01,0.00,22.7,22.3,00.0,31.0,24.3,13.5,0000.0,0002.16,0006.35,0001.37
2023-04-04 14:24:00,,0814.4,5.00,0.00,22.7,22.0,00.0,31.0,24.2,13.5,0000.0,0002.12,0006.27,0001.37
2023-04-04 14:25:00,,0814.4,4.99,0.00,22.6,21.7,00.0,31.0,24.2,13.5,0000.0,0002.09,0006.17,0001.35
2023-04-04 14:26:00,,0814.4,5.00,0.00,22.6,21.4,00.0,31.0,24.1,13.6,0000.0,0002.06,0006.98,0001.34
2023-04-04 14:27:00,,0814.5,5.00,0.00,22.6,21.2,00.0,31.0,24.0,13.6,0000.0,0001.97,0006.62,0001.32
2023-04-04 14:28:00,,0814.5,5.00,0.00,22.5,21.0,00.0,31.0,24.0,13.7,0000.0,0001.96,0006.37,0001.31
2023-04-04 14:29:00,,0814.5,5.00,0.00,22.5,20.9,00.0,31.0,24.0,13.7,0000.0,0001.98,0006.03,0001.31
2023-04-04 14:30:00,,0814.6,5.00,0.00,22.5,20.8,00.0,31.0,23.9,13.8,0000.0,0001.99,0006.05,0001.33
2023-04-04 14:31:00,,0814.6,5.00,0.00,22.4,20.7,00.0,31.0,23.9,13.8,0000.0,0002.01,0006.51,0001.34
2023-04-04 14:32:00,,0814.6,4.99,0.00,22.4,20.6,00.0,30.9,23.8,13.8,0000.0,0002.03,0006.65,0001.37
2023-04-04 14:33:00,,0814.6,5.00,0.00,22.4,20.7,00.0,30.9,24.0,13.9,0000.0,0002.04,0006.67,0001.37
2023-04-04 14:34:00,,0814.6,5.02,0.00,22.5,21.8,00.0,30.8,24.3,13.8,0000.0,0001.96,0006.39,0001.35
2023-04-04 14:35:00,,0814.8,5.00,0.00,22.7,22.8,00.0,30.8,24.7,13.8,0000.0,0001.98,0006.89,0001.36
2023-04-04 14:36:00,,0814.8,5.00,0.00,22.8,23.2,00.0,30.9,24.7,13.7,0000.0,0001.92,0006.78,0001.35
2023-04-04 14:37:00,,0814.8,4.99,0.00,22.8,22.9,00.0,31.0,24.5,13.7,0000.0,0001.86,0005.78,0001.33
2023-04-04 14:38:00,,0814.7,5.02,0.00,22.8,22.6,00.0,31.0,24.4,13.7,0000.0,0001.85,0005.73,0001.31
2023-04-04 14:39:00,,0814.7,5.00,0.00,22.7,22.3,00.0,31.0,24.3,13.7,0000.0,0001.83,0005.63,0001.30
2023-04-04 14:40:00,,0814.7,4.99,0.00,22.7,22.0,00.0,31.1,24.3,13.8,0000.0,0001.79,0005.61,0001.29
2023-04-04 14:41:00,,0814.7,4.99,0.00,22.7,21.7,00.0,31.1,24.2,13.8,0000.0,0001.78,0005.54,0001.28
2023-04-04 14:42:00,,0814.7,5.00,0.00,22.7,21.5,00.0,31.1,24.1,13.8,0000.0,0001.77,0005.24,0001.25
2023-04-04 14:43:00,,0814.6,5.00,0.00,22.6,21.3,00.0,31.0,24.1,13.8,0000.0,0001.73,0005.14,0001.24
2023-04-04 14:44:00,,0814.6,5.00,0.00,22.6,21.1,00.0,31.0,24.1,13.8,0000.0,0001.72,0006.04,0001.23
2023-04-04 14:45:00,,0814.5,5.00,0.00,22.5,21.0,00.0,31.0,24.0,13.7,0000.0,0001.67,0005.43,0001.22
2023-04-04 14:46:00,,0814.6,5.00,0.00,22.5,20.9,00.0,31.0,24.0,13.7,0000.0,0001.63,0004.74,0001.21
2023-04-04 14:47:00,,0814.5,5.00,0.00,22.5,20.7,00.0,31.0,23.9,13.7,0000.0,0001.63,0004.11,0001.20
2023-04-04 14:48:00,,0814.5,5.00,0.00,22.5,20.6,00.0,31.0,23.9,13.7,0000.0,0001.65,0003.94,0001.20
2023-04-04 14:49:00,,0814.5,5.00,0.00,22.4,20.5,00.0,30.9,23.9,13.8,0000.0,0001.65,0003.94,0001.21
2023-04-04 14:50:00,,0814.5,5.01,0.00,22.5,21.1,00.0,30.9,24.2,13.7,0000.0,0001.65,0003.95,0001.21
2023-04-04 14:51:00,,0814.5,5.00,0.00,22.6,22.2,00.0,30.9,24.5,13.7,0000.0,0001.64,0003.83,0001.21
2023-04-04 14:52:00,,0814.5,5.00,0.00,22.7,23.1,00.0,30.9,24.8,13.6,0000.0,0001.64,0003.81,0001.21
2023-04-04 14:53:00,,0814.4,5.00,0.00,22.8,23.0,00.0,31.0,24.6,13.5,0000.0,0001.61,0003.60,0001.21
2023-04-04 14:54:00,,0814.4,5.00,0.00,22.8,22.7,00.0,31.0,24.5,13.5,0000.0,0001.57,0003.53,0001.19
2023-04-04 14:55:00,,0814.4,5.01,0.00,22.7,22.4,00.0,31.0,24.4,13.5,0000.0,0001.56,0002.53,0001.19
2023-04-04 14:56:00,,0814.4,5.00,0.00,22.7,22.0,00.0,31.0,24.3,13.5,0000.0,0001.61,0002.62,0001.20
2023-04-04 14:57:00,,0814.3,4.99,0.00,22.7,21.7,00.0,31.0,24.2,13.5,0000.0,0001.60,0002.78,0001.20
2023-04-04 14:58:00,,0814.3,5.00,0.00,22.6,21.4,00.0,31.0,24.1,13.6,0000.0,0001.61,0003.10,0001.20
2023-04-04 14:59:00,,0814.4,5.00,0.00,22.6,21.2,00.0,31.0,24.1,13.6,0000.0,0001.59,0003.06,0001.19
